Regional Weather Roundup
Issued by NWS Upton, NY

Current Version | Previous Version | Graphics & Text | Print | Product List | Glossary Off
Versions: 1 2 3 4 5 6 7 8 9 10 11 12 13 14 15 16 17 18 19 20 21 22 23 24 25 26 27 28 29 30 31 32 33 34 35 36 37 38 39 40 41 42 43 44 45 46 47 48 49 50

963
ASUS41 KOKX 282305
RWROKX

REGIONAL WEATHER ROUNDUP
NATIONAL WEATHER SERVICE NEW YORK NY
700 PM EDT THU JUL 28 2016

NOTE: "FAIR" INDICATES FEW OR NO CLOUDS BELOW 12,000 FEET WITH NO
SIGNIFICANT WEATHER AND/OR OBSTRUCTIONS TO VISIBILITY.

NYZ071-072-176-178-NJZ106-104-290000-
NEW YORK CITY METRO AREA

CITY           SKY/WX    TMP DP  RH WIND       PRES   REMARKS
Central Park   LGT RAIN  80  70  71 MISG      29.91R
LaGuardia APRT LGT RAIN  84  69  60 SW9G20    29.87R
Kennedy INTL   CLOUDY    80  73  79 SW10      29.89R
Newark/Liberty LGT RAIN  79  69  71 SW13      29.88R
Bronx Bot Gard   N/A     82  66  57 SW8       29.88F
Wall St Helipt CLOUDY    79  70  73 W9        29.89R
Teterboro      LGT RAIN  82  66  58 SW9       29.87R
$$

NYZ177-179-078>081-290000-
LONG ISLAND NEW YORK

CITY           SKY/WX    TMP DP  RH WIND       PRES   REMARKS
Farmingdale    CLOUDY    81  76  84 SW14      29.89R
MacArthur/ISP  CLOUDY    81  75  82 SW12      29.88R
Shirley        CLOUDY    80  75  84 SW9       29.89S
Riverhead      NOT AVBL
Westhampton    CLOUDY    79  74  84 SW7       29.90S
Southhampton     N/A     77  75  94 SW7       29.84S
Bridgehampton    N/A     81  73  78 SW2       29.87S
East Hampton   FAIR      78  74  88 SW8       29.88S
Montauk          N/A     79  76  90 VRB5      29.89S
$$

NYZ052-065-067-290000-
HUDSON VALLEY

CITY           SKY/WX    TMP DP  RH WIND       PRES   REMARKS
White Plains   PTSUNNY   81  70  69 S7        29.88S
Newburgh       PTSUNNY   79  70  73 SW9       29.89R
Montgomery     CLOUDY    80  67  64 SW15      29.88R
Poughkeepsie   CLOUDY    88  64  44 VRB7G18   29.85R
Albany         CLOUDY    81  65  58 E3        29.85S
$$

NJZ001-105-106-008-010-013-015-019>022-104-290000-
NEW JERSEY

CITY           SKY/WX    TMP DP  RH WIND       PRES   REMARKS
Newark/Liberty LGT RAIN  79  69  71 SW13      29.88R
Teterboro      LGT RAIN  82  66  58 SW9       29.87R
Caldwell       MOSUNNY   79  71  76 VRB6      29.88R
Morristown     NOT AVBL
Somerville     CLOUDY    77  73  87 CALM      29.86F
Linden         LGT RAIN  79  67  66 W6        29.90R
Sussex         RAIN      73  71  93 E5        29.93R FOG
Abdover          N/A     76  70  82 SW6       29.92R
Trenton        CLOUDY    76  72  87 S6        29.87F
Millville      RAIN      74  72  93 E7        29.87F FOG
Atlantic City  TSTM      74  70  87 E3        29.88F FOG
Wrightstown    NOT AVBL
Toms River     LGT RAIN  75  72  90 CALM      29.90F
Belmar         CLOUDY    77  76  96 SW7       29.90S
$$

PAZ047>061-062-071-290000-
EASTERN PENNSYLVANIA

CITY           SKY/WX    TMP DP  RH WIND       PRES   REMARKS
Philadelphia   CLOUDY    76  72  87 E6        29.87F
Allentown      LGT RAIN  76  72  87 S3        29.87F
Scranton       CLOUDY    78  68  71 VRB5      29.89R
$$

CTZ002-004>006-009-010-012-RIZ004-006-007-MAZ004-011-015-290000-
SOUTHERN NEW ENGLAND
 IN CT

CITY           SKY/WX    TMP DP  RH WIND       PRES   REMARKS
Bradley INTL   CLOUDY    87  61  41 S10       29.85R
Hartford       CLOUDY    88  66  48 S13G20    29.84R HX  90
Danbury        CLOUDY    82  68  62 S7G18     29.89R
Wtrbury/Oxford PTSUNNY   82  66  57 S9        29.92S
Bridgeport     CLOUDY    83  72  69 SW13      29.87R
Meriden        PTSUNNY   85  69  58 S9        29.86R
New Haven      CLOUDY    81  72  74 S8        29.87R
Chester        FAIR      81  72  74 S8        29.89R
Groton         MOSUNNY   77  72  84 S6        29.87R
Wilimantic     MOSUNNY   86  67  52 S9        29.87R

 IN RI

CITY           SKY/WX    TMP DP  RH WIND       PRES   REMARKS
Providence     PTSUNNY   82  69  64 S13       29.87R
Block Island   CLOUDY    77  75  93 SW12      29.90R
Westerly       MOSUNNY   79  72  79 SW8       29.89R
 IN MA

CITY           SKY/WX    TMP DP  RH WIND       PRES   REMARKS
Boston         CLOUDY    86  65  49 S15       29.84R
Worchester     MOSUNNY   85  58  39 CALM      29.90R
Westfield      PTSUNNY   91  56  30 NW7       29.84S
Provincetown   MOSUNNY   78  71  79 SW9       29.88R
Nantucket      PTCLDY    72  69  90 S9        29.91R
$$

ANZ330-335-338-340-345-350-353-355-290000-
COASTAL MARINE OBSERVATIONS


STATION/POSITION TIME  SKY/WX   TEMP    WIND        PRES    VSBY  WAVE
                                AIR SEA DIR/SP/G                  HT/PER
                 (UTC)          (F)     (DEG/KT/KT) (MB)    (MI)  (FT/S)
NY HARB ENTRANCE 2150            79 78  200/ 14/ 16 1011.2          2/ 3
20S FIRE ISLAND  2150            78 78  200/  8/ 10 1011.4          1/ 6
GREAT SOUTH BAY  2200            79 83  200/ 10/ 12   N/A
23 SSW MONTAUK P 2150            76 73  210/  6/  8 1011.9          1/ 8
15 E BARNEGAT LI 2200               79                N/A           1/ 6
HUDSON CANYON    2250            80 81              1012.0          1/ 8
KINGS POINT      2200               73              1011.3
EXECUTION ROCKS  NOT AVBL
CENTRAL LI SOUND NOT AVBL
EASTERN LI SOUND NOT AVBL
ROBBINS REEF     2200                   230/ 16/ 21 1010.9
$$


>>>>>>>>>>>>>>>>>>>>>>>>>>>> KEY <<<<<<<<<<<<<<<<<<<<<<<<<<<
>                                                          <
>     SKY/WX - Sky Condition/Present Weather               <
>     TMP    - Temperature in Fahrenheit                   <
>     DP     - Dew Point in Fahrenheit                     <
>     RH     - Relative Humidity in Percent                <
>     WIND   - Direction (from) and Speed in MPH           <
>     PRES   - Mean Sea Level Pressure (inches of Hg)      <
>     WCI    - Wind Chill Index                            <
>     VSB    - VISIBILITY IN MILES                         <
>     HX     - HEAT INDEX                                  <
>     TC     - TEMPERATURE IN CELSIUS                      <
>     VRB    - VARIABLE WIND DIRECTION                     <
>                                                          <
>>>>>>>>>>>>>>>>>>>>>>>>>>>> KEY <<<<<<<<<<<<<<<<<<<<<<<<<<<




USA.gov is the U.S. government's official web portal to all federal, state and local government web resources and services.